Back to Top

Language: 

My Weather Underground Personal Weather Station Historical Data with Graphs...

Delerius Weather Station Historical Data
Daily Summary for March 28, 2017 Units:  Metric    English   Both
« Previous Day
Next Day »
Daily Weekly Monthly Yearly Custom
  High: Low: Average:
Temperature: 14.3 °C 5.8 °C 9.3 °C
Dew Point: 9.4 °C 4.3 °C 6.8 °C
Humidity: 95 % 69 % 85 %
Wind Speed: 16.1 km/h 0 km/h 8 km/h
Wind Gust: 32.2 km/h - -
Wind:- - SSE
Pressure: 1021.2 hPa 1015.8 hPa -
Precipitation: 0 mm    
Historical Graphs
 
 
Tabular Data for March 28, 2017
Time Temperature Dew Point Pressure Wind Wind Speed Wind Gust Humidity Rainfall Rate (Hourly) solar Conditions
00:00 7 °C 5.2 °C 1021.2 hPa East 3.2 km/h 11.3 km/h 88 % 0 mm 0 W/m2
00:05 6.9 °C 5.1 °C 1021.2 hPa East 1.6 km/h 9.7 km/h 88 % 0 mm 0 W/m2
00:10 6.9 °C 5.1 °C 1021.2 hPa East 3.2 km/h 9.7 km/h 88 % 0 mm 0 W/m2
00:15 6.9 °C 5.1 °C 1021.2 hPa East 3.2 km/h 8 km/h 88 % 0 mm 0 W/m2
00:20 6.9 °C 5.1 °C 1021.2 hPa East 1.6 km/h 8 km/h 88 % 0 mm 0 W/m2
00:25 6.8 °C 5.1 °C 1021.2 hPa ESE 3.2 km/h 9.7 km/h 89 % 0 mm 0 W/m2
00:30 6.8 °C 4.9 °C 1021.2 hPa ESE 3.2 km/h 9.7 km/h 88 % 0 mm 0 W/m2
00:35 6.8 °C 4.9 °C 1020.9 hPa East 1.6 km/h 9.7 km/h 88 % 0 mm 0 W/m2
00:40 6.8 °C 4.9 °C 1020.9 hPa East 1.6 km/h 9.7 km/h 88 % 0 mm 0 W/m2
00:43 6.8 °C 4.9 °C 1020.9 hPa East 3.2 km/h 9.7 km/h 88 % 0 mm 0 W/m2
00:48 6.7 °C 4.8 °C 1020.9 hPa East 3.2 km/h 8 km/h 88 % 0 mm 0 W/m2
00:53 6.7 °C 4.8 °C 1020.9 hPa East 3.2 km/h 9.7 km/h 88 % 0 mm 0 W/m2
00:58 6.7 °C 4.8 °C 1020.9 hPa ESE 3.2 km/h 9.7 km/h 88 % 0 mm 0 W/m2
01:03 6.6 °C 4.8 °C 1020.9 hPa East 3.2 km/h 9.7 km/h 88 % 0 mm 0 W/m2
01:08 6.6 °C 4.8 °C 1020.9 hPa East 3.2 km/h 9.7 km/h 88 % 0 mm 0 W/m2
01:13 6.6 °C 4.8 °C 1020.9 hPa East 3.2 km/h 9.7 km/h 88 % 0 mm 0 W/m2
01:18 6.5 °C 4.7 °C 1020.5 hPa East 4.8 km/h 11.3 km/h 88 % 0 mm 0 W/m2
01:23 6.5 °C 4.7 °C 1020.5 hPa East 4.8 km/h 11.3 km/h 88 % 0 mm 0 W/m2
01:28 6.4 °C 4.6 °C 1020.5 hPa East 3.2 km/h 11.3 km/h 88 % 0 mm 0 W/m2
01:33 6.4 °C 4.6 °C 1020.2 hPa East 3.2 km/h 9.7 km/h 88 % 0 mm 0 W/m2
01:38 6.3 °C 4.4 °C 1020.2 hPa East 3.2 km/h 9.7 km/h 88 % 0 mm 0 W/m2
01:43 6.3 °C 4.4 °C 1020.2 hPa ESE 3.2 km/h 11.3 km/h 88 % 0 mm 0 W/m2
01:48 6.3 °C 4.4 °C 1020.2 hPa ESE 3.2 km/h 11.3 km/h 88 % 0 mm 0 W/m2
01:53 6.3 °C 4.6 °C 1020.2 hPa ESE 3.2 km/h 9.7 km/h 89 % 0 mm 0 W/m2
01:58 6.3 °C 4.6 °C 1020.2 hPa ESE 3.2 km/h 9.7 km/h 89 % 0 mm 0 W/m2
02:03 6.3 °C 4.6 °C 1020.2 hPa ESE 3.2 km/h 9.7 km/h 89 % 0 mm 0 W/m2
02:08 6.3 °C 4.6 °C 1019.9 hPa ESE 1.6 km/h 9.7 km/h 89 % 0 mm 0 W/m2
02:13 6.2 °C 4.5 °C 1020.2 hPa ESE 3.2 km/h 8 km/h 89 % 0 mm 0 W/m2
02:18 6.2 °C 4.5 °C 1020.2 hPa ESE 3.2 km/h 8 km/h 89 % 0 mm 0 W/m2
02:23 6.2 °C 4.5 °C 1020.2 hPa ESE 3.2 km/h 9.7 km/h 89 % 0 mm 0 W/m2
02:28 6.2 °C 4.5 °C 1020.2 hPa ESE 3.2 km/h 9.7 km/h 89 % 0 mm 0 W/m2
02:33 6.2 °C 4.5 °C 1019.9 hPa ESE 1.6 km/h 9.7 km/h 89 % 0 mm 0 W/m2
02:38 6.2 °C 4.5 °C 1020.2 hPa ESE 1.6 km/h 9.7 km/h 89 % 0 mm 0 W/m2
02:43 6.2 °C 4.5 °C 1020.2 hPa ESE 1.6 km/h 8 km/h 89 % 0 mm 0 W/m2
02:48 6.2 °C 4.5 °C 1019.9 hPa ESE 3.2 km/h 8 km/h 89 % 0 mm 0 W/m2
02:53 6.2 °C 4.5 °C 1019.9 hPa SE 4.8 km/h 8 km/h 89 % 0 mm 0 W/m2
02:58 6.2 °C 4.3 °C 1019.9 hPa SE 6.4 km/h 9.7 km/h 88 % 0 mm 0 W/m2
03:03 6.2 °C 4.3 °C 1019.9 hPa SE 4.8 km/h 9.7 km/h 88 % 0 mm 0 W/m2
03:08 6.2 °C 4.3 °C 1019.9 hPa SE 6.4 km/h 11.3 km/h 88 % 0 mm 0 W/m2
03:13 6.3 °C 4.4 °C 1019.9 hPa SSE 3.2 km/h 11.3 km/h 88 % 0 mm 0 W/m2
03:18 6.3 °C 4.4 °C 1019.9 hPa SSE 1.6 km/h 4.8 km/h 88 % 0 mm 0 W/m2
03:24 6.3 °C 4.4 °C 1019.9 hPa Calm   4.8 km/h 88 % 0 mm 0 W/m2
03:29 6.3 °C 4.4 °C 1019.9 hPa SE 1.6 km/h 6.4 km/h 88 % 0 mm 0 W/m2
03:34 6.3 °C 4.4 °C 1019.9 hPa SE 3.2 km/h 8 km/h 88 % 0 mm 0 W/m2
03:39 6.3 °C 4.4 °C 1019.9 hPa SSE 3.2 km/h 8 km/h 88 % 0 mm 0 W/m2
03:43 6.3 °C 4.6 °C 1019.9 hPa SSE 1.6 km/h 8 km/h 89 % 0 mm 0 W/m2
03:48 6.4 °C 4.7 °C 1019.9 hPa South 1.6 km/h 14.5 km/h 89 % 0 mm 0 W/m2
03:54 6.4 °C 4.7 °C 1019.9 hPa South 3.2 km/h 14.5 km/h 89 % 0 mm 0 W/m2
03:59 6.4 °C 4.9 °C 1019.9 hPa SSE 3.2 km/h 9.7 km/h 90 % 0 mm 0 W/m2
04:04 6.4 °C 4.9 °C 1019.5 hPa SSE 3.2 km/h 8 km/h 90 % 0 mm 0 W/m2
04:09 6.5 °C 5 °C 1019.5 hPa SE 3.2 km/h 8 km/h 90 % 0 mm 0 W/m2
04:14 6.5 °C 5 °C 1019.5 hPa SE 4.8 km/h 8 km/h 90 % 0 mm 0 W/m2
04:19 6.5 °C 5 °C 1019.5 hPa SE 3.2 km/h 8 km/h 90 % 0 mm 0 W/m2
04:24 6.4 °C 5.1 °C 1019.5 hPa ESE 1.6 km/h 4.8 km/h 91 % 0 mm 0 W/m2
04:29 6.5 °C 5.1 °C 1019.5 hPa SE 1.6 km/h 11.3 km/h 91 % 0 mm 0 W/m2
04:34 6.5 °C 5.1 °C 1019.2 hPa SSE 3.2 km/h 11.3 km/h 91 % 0 mm 0 W/m2
04:39 6.5 °C 5.1 °C 1019.2 hPa South 3.2 km/h 9.7 km/h 91 % 0 mm 0 W/m2
04:44 6.5 °C 5.1 °C 1019.2 hPa SSE 1.6 km/h 6.4 km/h 91 % 0 mm 0 W/m2
04:49 6.5 °C 5.1 °C 1019.2 hPa South 3.2 km/h 11.3 km/h 91 % 0 mm 0 W/m2
04:54 6.5 °C 5.1 °C 1019.2 hPa South 4.8 km/h 11.3 km/h 91 % 0 mm 0 W/m2
04:59 6.4 °C 5.1 °C 1019.2 hPa South 3.2 km/h 11.3 km/h 91 % 0 mm 0 W/m2
05:04 6.5 °C 5.1 °C 1019.2 hPa SSE 1.6 km/h 9.7 km/h 91 % 0 mm 0 W/m2
05:09 6.4 °C 5.2 °C 1019.2 hPa SSE 4.8 km/h 16.1 km/h 92 % 0 mm 0 W/m2
05:14 6.4 °C 5.2 °C 1019.2 hPa South 8 km/h 16.1 km/h 92 % 0 mm 0 W/m2
05:19 6.4 °C 5.2 °C 1019.2 hPa South 4.8 km/h 12.9 km/h 92 % 0 mm 0 W/m2
05:24 6.5 °C 5.3 °C 1019.2 hPa SSE 3.2 km/h 11.3 km/h 92 % 0 mm 0 W/m2
05:29 6.4 °C 5.2 °C 1019.2 hPa SSE 6.4 km/h 12.9 km/h 92 % 0 mm 0 W/m2
05:34 6.4 °C 5.2 °C 1019.2 hPa SSE 8 km/h 14.5 km/h 92 % 0 mm 0 W/m2
05:39 6.4 °C 5.2 °C 1019.2 hPa South 8 km/h 16.1 km/h 92 % 0 mm 0 W/m2
05:44 6.4 °C 5.3 °C 1019.2 hPa South 4.8 km/h 16.1 km/h 93 % 0 mm 0 W/m2
05:49 6.4 °C 5.3 °C 1019.2 hPa SSE 4.8 km/h 11.3 km/h 93 % 0 mm 0 W/m2
05:54 6.4 °C 5.3 °C 1019.2 hPa SSE 4.8 km/h 11.3 km/h 93 % 0 mm 0 W/m2
05:59 6.4 °C 5.3 °C 1019.2 hPa SSE 4.8 km/h 11.3 km/h 93 % 0 mm 0 W/m2
06:04 6.4 °C 5.3 °C 1019.2 hPa SSE 6.4 km/h 12.9 km/h 93 % 0 mm 0 W/m2
06:09 6.4 °C 5.3 °C 1019.2 hPa SSE 8 km/h 16.1 km/h 93 % 0 mm 0 W/m2
06:14 6.4 °C 5.3 °C 1019.2 hPa SSE 6.4 km/h 16.1 km/h 93 % 0 mm 0 W/m2
06:19 6.4 °C 5.3 °C 1019.2 hPa SSE 4.8 km/h 11.3 km/h 93 % 0 mm 0 W/m2
06:24 6.3 °C 5.3 °C 1019.2 hPa SSE 6.4 km/h 16.1 km/h 93 % 0 mm 0 W/m2
06:29 6.3 °C 5.3 °C 1019.2 hPa South 8 km/h 16.1 km/h 93 % 0 mm 0 W/m2
06:34 6.3 °C 5.3 °C 1019.2 hPa SSW 8 km/h 14.5 km/h 93 % 0 mm 0 W/m2
06:39 6.3 °C 5.4 °C 1018.8 hPa SSW 4.8 km/h 11.3 km/h 94 % 0 mm 0 W/m2
06:44 6.3 °C 5.4 °C 1018.8 hPa SSW 4.8 km/h 11.3 km/h 94 % 0 mm 0 W/m2
06:49 6.3 °C 5.4 °C 1018.8 hPa SSW 3.2 km/h 9.7 km/h 94 % 0 mm 0 W/m2
06:54 6.3 °C 5.4 °C 1018.8 hPa SSE 4.8 km/h 9.7 km/h 94 % 0 mm 0 W/m2
06:59 6.3 °C 5.4 °C 1018.8 hPa SE 6.4 km/h 12.9 km/h 94 % 0 mm 0 W/m2
07:04 6.2 °C 5.3 °C 1018.8 hPa SSE 6.4 km/h 12.9 km/h 94 % 0 mm 5 W/m2
07:09 6.2 °C 5.3 °C 1018.8 hPa South 4.8 km/h 11.3 km/h 94 % 0 mm 5 W/m2
07:14 6.2 °C 5.3 °C 1018.8 hPa SSE 4.8 km/h 8 km/h 94 % 0 mm 7 W/m2
07:19 6.2 °C 5.3 °C 1018.8 hPa SE 6.4 km/h 11.3 km/h 94 % 0 mm 9 W/m2
07:24 6.2 °C 5.3 °C 1018.5 hPa SE 8 km/h 12.9 km/h 94 % 0 mm 11 W/m2
07:29 6.1 °C 5.2 °C 1018.5 hPa SE 6.4 km/h 12.9 km/h 94 % 0 mm 12 W/m2
07:34 6.1 °C 5.2 °C 1018.5 hPa SE 4.8 km/h 11.3 km/h 94 % 0 mm 14 W/m2
07:39 6.1 °C 5.2 °C 1018.5 hPa SE 6.4 km/h 12.9 km/h 94 % 0 mm 18 W/m2
07:44 6.1 °C 5.2 °C 1018.5 hPa SE 8 km/h 12.9 km/h 94 % 0 mm 18 W/m2
07:49 6 °C 5.1 °C 1018.5 hPa SE 8 km/h 14.5 km/h 94 % 0 mm 16 W/m2
07:54 5.9 °C 5.2 °C 1018.5 hPa SSE 8 km/h 16.1 km/h 95 % 0 mm 19 W/m2
07:59 5.9 °C 5.2 °C 1018.5 hPa SE 8 km/h 16.1 km/h 95 % 0 mm 25 W/m2
08:04 5.8 °C 5.1 °C 1018.5 hPa SE 9.7 km/h 16.1 km/h 95 % 0 mm 30 W/m2
08:09 5.8 °C 5.1 °C 1018.5 hPa SSE 8 km/h 12.9 km/h 95 % 0 mm 33 W/m2
08:14 5.8 °C 5.1 °C 1018.5 hPa SSE 8 km/h 12.9 km/h 95 % 0 mm 28 W/m2
08:19 5.8 °C 5.1 °C 1018.5 hPa South 8 km/h 14.5 km/h 95 % 0 mm 33 W/m2
08:24 5.8 °C 5.1 °C 1018.5 hPa South 8 km/h 16.1 km/h 95 % 0 mm 33 W/m2
08:29 5.9 °C 5.2 °C 1018.5 hPa South 8 km/h 16.1 km/h 95 % 0 mm 33 W/m2
08:34 5.9 °C 5.2 °C 1018.5 hPa South 6.4 km/h 12.9 km/h 95 % 0 mm 30 W/m2
08:39 5.9 °C 5.2 °C 1018.5 hPa SSE 6.4 km/h 12.9 km/h 95 % 0 mm 25 W/m2
08:44 5.9 °C 5.2 °C 1018.5 hPa SE 8 km/h 12.9 km/h 95 % 0 mm 42 W/m2
08:49 5.9 °C 5.2 °C 1018.5 hPa SE 8 km/h 14.5 km/h 95 % 0 mm 49 W/m2
08:54 5.9 °C 5.2 °C 1018.5 hPa SE 9.7 km/h 17.7 km/h 95 % 0 mm 46 W/m2
08:59 5.9 °C 5.2 °C 1018.5 hPa SSE 9.7 km/h 17.7 km/h 95 % 0 mm 46 W/m2
09:04 5.9 °C 5.2 °C 1018.5 hPa SSE 8 km/h 16.1 km/h 95 % 0 mm 46 W/m2
09:10 6 °C 5.3 °C 1018.5 hPa SSE 8 km/h 16.1 km/h 95 % 0 mm 53 W/m2
09:15 6 °C 5.3 °C 1018.5 hPa SSE 8 km/h 16.1 km/h 95 % 0 mm 65 W/m2
09:20 6.1 °C 5.3 °C 1018.5 hPa SSE 9.7 km/h 16.1 km/h 95 % 0 mm 65 W/m2
09:25 6.1 °C 5.3 °C 1018.5 hPa SSE 8 km/h 12.9 km/h 95 % 0 mm 67 W/m2
09:30 6.1 °C 5.3 °C 1018.5 hPa SSE 6.4 km/h 12.9 km/h 95 % 0 mm 72 W/m2
09:35 6.2 °C 5.4 °C 1018.5 hPa SSE 4.8 km/h 9.7 km/h 95 % 0 mm 67 W/m2
09:40 6.3 °C 5.6 °C 1018.5 hPa SSE 4.8 km/h 12.9 km/h 95 % 0 mm 46 W/m2
09:45 6.2 °C 5.4 °C 1018.5 hPa SSE 6.4 km/h 12.9 km/h 95 % 0 mm 107 W/m2
09:50 6.3 °C 5.6 °C 1018.5 hPa SE 9.7 km/h 14.5 km/h 95 % 0 mm 90 W/m2
09:55 6.3 °C 5.6 °C 1018.5 hPa SE 9.7 km/h 14.5 km/h 95 % 0 mm 88 W/m2
10:00 6.3 °C 5.6 °C 1018.5 hPa SE 8 km/h 14.5 km/h 95 % 0 mm 111 W/m2
10:05 6.3 °C 5.6 °C 1018.5 hPa SE 9.7 km/h 14.5 km/h 95 % 0 mm 113 W/m2
10:10 6.3 °C 5.6 °C 1018.5 hPa SE 9.7 km/h 16.1 km/h 95 % 0 mm 132 W/m2
10:15 6.4 °C 5.7 °C 1018.5 hPa SSE 8 km/h 16.1 km/h 95 % 0 mm 141 W/m2
10:20 6.6 °C 5.8 °C 1018.5 hPa SSE 8 km/h 14.5 km/h 95 % 0 mm 156 W/m2
10:25 6.6 °C 5.7 °C 1018.5 hPa SSE 9.7 km/h 16.1 km/h 94 % 0 mm 162 W/m2
10:30 6.6 °C 5.7 °C 1018.5 hPa SSE 11.3 km/h 16.1 km/h 94 % 0 mm 155 W/m2
10:35 6.7 °C 5.8 °C 1018.5 hPa SE 11.3 km/h 17.7 km/h 94 % 0 mm 179 W/m2
10:40 6.7 °C 5.8 °C 1018.5 hPa SSE 11.3 km/h 17.7 km/h 94 % 0 mm 176 W/m2
10:45 6.8 °C 5.7 °C 1018.5 hPa SSE 9.7 km/h 17.7 km/h 93 % 0 mm 183 W/m2
10:50 6.9 °C 5.8 °C 1018.5 hPa SSE 9.7 km/h 14.5 km/h 93 % 0 mm 199 W/m2
10:55 7.1 °C 6.1 °C 1018.5 hPa SE 9.7 km/h 17.7 km/h 93 % 0 mm 172 W/m2
11:00 7.2 °C 6.2 °C 1018.5 hPa SE 9.7 km/h 17.7 km/h 93 % 0 mm 171 W/m2
11:05 7.2 °C 6 °C 1018.5 hPa SSE 9.7 km/h 17.7 km/h 92 % 0 mm 192 W/m2
11:10 7.2 °C 6 °C 1018.5 hPa SE 11.3 km/h 17.7 km/h 92 % 0 mm 250 W/m2
11:15 7.3 °C 6.1 °C 1018.5 hPa SSE 11.3 km/h 17.7 km/h 92 % 0 mm 262 W/m2
11:20 7.3 °C 6.1 °C 1018.5 hPa SSE 9.7 km/h 17.7 km/h 92 % 0 mm 223 W/m2
11:25 7.4 °C 6 °C 1018.5 hPa SSE 9.7 km/h 17.7 km/h 91 % 0 mm 260 W/m2
11:30 7.5 °C 6.1 °C 1018.5 hPa SE 11.3 km/h 20.9 km/h 91 % 0 mm 297 W/m2
11:35 7.7 °C 6.3 °C 1018.5 hPa SE 11.3 km/h 20.9 km/h 91 % 0 mm 304 W/m2
11:40 7.8 °C 6.3 °C 1018.5 hPa SSE 11.3 km/h 16.1 km/h 90 % 0 mm 327 W/m2
11:45 8 °C 6.4 °C 1018.5 hPa SSE 9.7 km/h 16.1 km/h 90 % 0 mm 403 W/m2
11:51 8.2 °C 6.5 °C 1018.5 hPa SSE 11.3 km/h 20.9 km/h 89 % 0 mm 364 W/m2
11:56 8.4 °C 6.5 °C 1018.2 hPa SE 12.9 km/h 20.9 km/h 88 % 0 mm 336 W/m2
11:58 8.5 °C 6.6 °C 1018.2 hPa SE 12.9 km/h 19.3 km/h 88 % 0 mm 670 W/m2
12:03 8.8 °C 6.8 °C 1018.2 hPa SE 11.3 km/h 19.3 km/h 87 % 0 mm 404 W/m2
12:08 9.1 °C 7.1 °C 1018.2 hPa SE 11.3 km/h 19.3 km/h 87 % 0 mm 374 W/m2
12:13 9.3 °C 7.1 °C 1018.2 hPa SE 9.7 km/h 20.9 km/h 86 % 0 mm 737 W/m2
12:18 9.4 °C 7 °C 1018.5 hPa SE 11.3 km/h 20.9 km/h 85 % 0 mm 664 W/m2
12:23 9.6 °C 7 °C 1018.2 hPa SSE 12.9 km/h 19.3 km/h 84 % 0 mm 724 W/m2
12:28 9.7 °C 6.9 °C 1018.2 hPa SSE 12.9 km/h 19.3 km/h 83 % 0 mm 294 W/m2
12:33 9.9 °C 7.3 °C 1018.2 hPa SE 12.9 km/h 20.9 km/h 84 % 0 mm 635 W/m2
12:38 10.1 °C 7.3 °C 1017.8 hPa SE 12.9 km/h 20.9 km/h 83 % 0 mm 686 W/m2
12:43 10.3 °C 7.3 °C 1017.8 hPa SE 12.9 km/h 20.9 km/h 82 % 0 mm 686 W/m2
12:48 10.4 °C 7.3 °C 1017.8 hPa SE 11.3 km/h 17.7 km/h 81 % 0 mm 691 W/m2
12:53 10.7 °C 7.8 °C 1017.5 hPa SE 11.3 km/h 17.7 km/h 82 % 0 mm 608 W/m2
12:58 11 °C 7.7 °C 1017.5 hPa SE 9.7 km/h 20.9 km/h 80 % 0 mm 538 W/m2
13:03 11.2 °C 7.9 °C 1017.8 hPa SE 11.3 km/h 20.9 km/h 80 % 0 mm 670 W/m2
13:08 11.3 °C 7.8 °C 1017.8 hPa SE 12.9 km/h 24.1 km/h 79 % 0 mm 661 W/m2
13:13 11.5 °C 8 °C 1017.5 hPa SE 12.9 km/h 24.1 km/h 79 % 0 mm 656 W/m2
13:18 11.7 °C 8.2 °C 1017.5 hPa SE 11.3 km/h 19.3 km/h 79 % 0 mm 650 W/m2
13:23 11.8 °C 8.1 °C 1017.5 hPa SE 12.9 km/h 19.3 km/h 78 % 0 mm 635 W/m2
13:28 12.1 °C 8.4 °C 1017.5 hPa SE 12.9 km/h 20.9 km/h 78 % 0 mm 652 W/m2
13:33 12.3 °C 8.4 °C 1017.2 hPa SE 11.3 km/h 20.9 km/h 77 % 0 mm 654 W/m2
13:38 12.6 °C 8.5 °C 1017.5 hPa SE 9.7 km/h 17.7 km/h 76 % 0 mm 628 W/m2
13:43 12.6 °C 8.3 °C 1017.2 hPa SSE 11.3 km/h 20.9 km/h 75 % 0 mm 446 W/m2
13:48 12.6 °C 8.3 °C 1017.2 hPa South 11.3 km/h 20.9 km/h 75 % 0 mm 401 W/m2
13:53 12.7 °C 8.6 °C 1017.2 hPa South 9.7 km/h 17.7 km/h 76 % 0 mm 666 W/m2
13:58 13.1 °C 8.6 °C 1017.2 hPa SE 8 km/h 17.7 km/h 74 % 0 mm 598 W/m2
14:03 13.2 °C 8.7 °C 1017.2 hPa SE 9.7 km/h 19.3 km/h 74 % 0 mm 585 W/m2
14:08 13.3 °C 8.8 °C 1017.2 hPa SE 9.7 km/h 19.3 km/h 74 % 0 mm 612 W/m2
14:13 13.4 °C 8.7 °C 1017.2 hPa SE 11.3 km/h 19.3 km/h 73 % 0 mm 591 W/m2
14:19 13.7 °C 9.2 °C 1017.2 hPa SE 11.3 km/h 19.3 km/h 74 % 0 mm 638 W/m2
14:24 13.9 °C 9.1 °C 1016.8 hPa SE 11.3 km/h 17.7 km/h 73 % 0 mm 631 W/m2
14:29 14.2 °C 9.2 °C 1016.8 hPa SSE 9.7 km/h 17.7 km/h 72 % 0 mm 603 W/m2
14:34 14.3 °C 9.1 °C 1016.8 hPa SSE 9.7 km/h 17.7 km/h 71 % 0 mm 570 W/m2
14:39 14.3 °C 8.9 °C 1016.5 hPa SSE 9.7 km/h 19.3 km/h 70 % 0 mm 359 W/m2
14:44 14.3 °C 8.9 °C 1016.5 hPa South 12.9 km/h 22.5 km/h 70 % 0 mm 504 W/m2
14:49 14.2 °C 9 °C 1016.5 hPa South 14.5 km/h 22.5 km/h 71 % 0 mm 214 W/m2
14:54 14.2 °C 8.6 °C 1016.5 hPa South 14.5 km/h 25.7 km/h 69 % 0 mm 272 W/m2
14:59 14 °C 8.6 °C 1016.5 hPa SSW 14.5 km/h 25.7 km/h 70 % 0 mm 234 W/m2
15:04 13.7 °C 8.6 °C 1016.5 hPa SSW 14.5 km/h 29 km/h 71 % 0 mm 279 W/m2
15:09 13.6 °C 8.4 °C 1016.5 hPa South 16.1 km/h 29 km/h 71 % 0 mm 279 W/m2
15:14 13.6 °C 8.7 °C 1016.5 hPa South 14.5 km/h 25.7 km/h 72 % 0 mm 285 W/m2
15:19 13.6 °C 8.4 °C 1016.5 hPa South 14.5 km/h 30.6 km/h 71 % 0 mm 345 W/m2
15:24 13.5 °C 8.6 °C 1016.5 hPa SSW 16.1 km/h 30.6 km/h 72 % 0 mm 334 W/m2
15:29 13.3 °C 8.3 °C 1016.5 hPa SSW 16.1 km/h 25.7 km/h 72 % 0 mm 272 W/m2
15:34 13.3 °C 8.6 °C 1016.5 hPa SSW 14.5 km/h 25.7 km/h 73 % 0 mm 146 W/m2
15:39 13.2 °C 8.4 °C 1016.5 hPa SSW 12.9 km/h 22.5 km/h 73 % 0 mm 95 W/m2
15:44 13.1 °C 8.6 °C 1016.5 hPa SSW 11.3 km/h 17.7 km/h 74 % 0 mm 107 W/m2
15:49 13 °C 8.4 °C 1016.5 hPa SSW 11.3 km/h 22.5 km/h 74 % 0 mm 69 W/m2
15:54 13 °C 8.7 °C 1016.5 hPa SSW 12.9 km/h 29 km/h 75 % 0 mm 56 W/m2
15:59 12.9 °C 8.9 °C 1016.5 hPa SSW 11.3 km/h 29 km/h 77 % 0 mm 81 W/m2
16:04 12.7 °C 8.9 °C 1016.5 hPa SSW 12.9 km/h 29 km/h 78 % 0 mm 128 W/m2
16:09 12.6 °C 9.1 °C 1016.5 hPa SSW 12.9 km/h 29 km/h 79 % 0 mm 178 W/m2
16:14 12.5 °C 8.9 °C 1016.5 hPa SSW 9.7 km/h 16.1 km/h 79 % 0 mm 218 W/m2
16:19 12.5 °C 8.9 °C 1016.5 hPa SSW 9.7 km/h 16.1 km/h 79 % 0 mm 237 W/m2
16:24 12.6 °C 9.1 °C 1016.5 hPa SSW 9.7 km/h 17.7 km/h 79 % 0 mm 475 W/m2
16:29 12.8 °C 9.1 °C 1016.1 hPa SSW 9.7 km/h 17.7 km/h 78 % 0 mm 483 W/m2
16:34 13.1 °C 9.2 °C 1016.1 hPa SSW 9.7 km/h 19.3 km/h 77 % 0 mm 536 W/m2
16:39 13.4 °C 9.3 °C 1016.1 hPa SSW 11.3 km/h 19.3 km/h 76 % 0 mm 475 W/m2
16:44 13.7 °C 9.3 °C 1016.1 hPa SSW 9.7 km/h 19.3 km/h 75 % 0 mm 139 W/m2
16:49 13.6 °C 9.1 °C 1016.1 hPa SSW 11.3 km/h 19.3 km/h 74 % 0 mm 265 W/m2
16:54 13.6 °C 9.1 °C 1016.1 hPa SSW 11.3 km/h 19.3 km/h 74 % 0 mm 362 W/m2
16:59 13.8 °C 9.4 °C 1016.1 hPa SSW 11.3 km/h 19.3 km/h 75 % 0 mm 339 W/m2
17:04 14.1 °C 9.1 °C 1016.1 hPa SSW 14.5 km/h 22.5 km/h 72 % 0 mm 292 W/m2
17:09 14.1 °C 9.1 °C 1016.1 hPa SW 14.5 km/h 24.1 km/h 72 % 0 mm 69 W/m2
17:10 14.1 °C 9.1 °C 1016.1 hPa SSW 16.1 km/h 24.1 km/h 72 % 0 mm 60 W/m2
17:15 13.9 °C 8.9 °C 1016.1 hPa SW 14.5 km/h 32.2 km/h 72 % 0 mm 258 W/m2
17:20 13.8 °C 8.8 °C 1015.8 hPa SW 14.5 km/h 32.2 km/h 72 % 0 mm 95 W/m2
17:25 13.6 °C 8.7 °C 1015.8 hPa SSW 14.5 km/h 29 km/h 72 % 0 mm 77 W/m2
17:30 13.3 °C 8.6 °C 1016.1 hPa SSW 14.5 km/h 29 km/h 73 % 0 mm 72 W/m2
17:35 13.2 °C 8.7 °C 1016.1 hPa SW 12.9 km/h 24.1 km/h 74 % 0 mm 83 W/m2
17:37 13.2 °C 8.7 °C 1016.1 hPa SW 12.9 km/h 24.1 km/h 74 % 0 mm 77 W/m2
17:42 13.1 °C 8.6 °C 1016.1 hPa SSW 12.9 km/h 22.5 km/h 74 % 0 mm 148 W/m2
17:47 13.2 °C 8.9 °C 1016.1 hPa SSW 11.3 km/h 20.9 km/h 75 % 0 mm 204 W/m2
17:52 13.3 °C 8.8 °C 1016.1 hPa SSW 12.9 km/h 20.9 km/h 74 % 0 mm 100 W/m2
17:57 13.2 °C 8.9 °C 1016.1 hPa SSW 12.9 km/h 20.9 km/h 75 % 0 mm 104 W/m2
18:02 13.2 °C 8.9 °C 1016.1 hPa SSW 11.3 km/h 20.9 km/h 75 % 0 mm 54 W/m2
18:07 13.1 °C 8.8 °C 1016.1 hPa SSW 12.9 km/h 22.5 km/h 75 % 0 mm 44 W/m2
18:12 13.1 °C 8.8 °C 1016.1 hPa SSW 11.3 km/h 22.5 km/h 75 % 0 mm 35 W/m2
18:17 13 °C 8.7 °C 1016.1 hPa SSW 11.3 km/h 22.5 km/h 75 % 0 mm 51 W/m2
18:22 12.9 °C 8.8 °C 1016.1 hPa SSW 11.3 km/h 22.5 km/h 76 % 0 mm 46 W/m2
18:27 12.9 °C 8.6 °C 1016.1 hPa SSW 11.3 km/h 24.1 km/h 75 % 0 mm 35 W/m2
18:32 12.9 °C 8.4 °C 1016.1 hPa SW 12.9 km/h 24.1 km/h 74 % 0 mm 23 W/m2
18:37 12.9 °C 8.4 °C 1016.1 hPa SSW 12.9 km/h 29 km/h 74 % 0 mm 30 W/m2
18:42 12.9 °C 8.6 °C 1016.1 hPa SSW 11.3 km/h 29 km/h 75 % 0 mm 19 W/m2
18:47 12.8 °C 8.3 °C 1016.1 hPa SW 12.9 km/h 25.7 km/h 74 % 0 mm 25 W/m2
18:52 12.8 °C 8.5 °C 1016.1 hPa SSW 12.9 km/h 25.7 km/h 75 % 0 mm 25 W/m2
18:57 12.8 °C 8.5 °C 1016.1 hPa SSW 11.3 km/h 17.7 km/h 75 % 0 mm 21 W/m2
19:02 12.7 °C 8.4 °C 1016.1 hPa SSW 11.3 km/h 17.7 km/h 75 % 0 mm 18 W/m2
19:07 12.7 °C 8.4 °C 1016.1 hPa SSW 11.3 km/h 20.9 km/h 75 % 0 mm 18 W/m2
19:12 12.6 °C 8.5 °C 1016.1 hPa SSW 11.3 km/h 20.9 km/h 76 % 0 mm 14 W/m2
19:18 12.6 °C 8.5 °C 1016.5 hPa SSW 9.7 km/h 16.1 km/h 76 % 0 mm 9 W/m2
19:23 12.6 °C 8.5 °C 1016.5 hPa SSW 8 km/h 14.5 km/h 76 % 0 mm 7 W/m2
19:28 12.5 °C 8.4 °C 1016.5 hPa SW 6.4 km/h 12.9 km/h 76 % 0 mm 5 W/m2
19:33 12.5 °C 8.4 °C 1016.5 hPa SSW 3.2 km/h 12.9 km/h 76 % 0 mm 0 W/m2
19:38 12.4 °C 8.5 °C 1016.5 hPa South 3.2 km/h 14.5 km/h 77 % 0 mm 0 W/m2
19:43 12.4 °C 8.5 °C 1016.5 hPa South 4.8 km/h 14.5 km/h 77 % 0 mm 0 W/m2
19:48 12.4 °C 8.5 °C 1016.5 hPa South 6.4 km/h 16.1 km/h 77 % 0 mm 0 W/m2
19:53 12.4 °C 8.5 °C 1016.5 hPa South 6.4 km/h 16.1 km/h 77 % 0 mm 0 W/m2
19:58 12.3 °C 8.4 °C 1016.5 hPa South 6.4 km/h 16.1 km/h 77 % 0 mm 0 W/m2
20:03 12.3 °C 8.6 °C 1016.5 hPa SSW 8 km/h 16.1 km/h 78 % 0 mm 0 W/m2
20:08 12.2 °C 8.5 °C 1016.5 hPa SSW 11.3 km/h 20.9 km/h 78 % 0 mm 0 W/m2
20:13 12.2 °C 8.7 °C 1016.5 hPa SW 11.3 km/h 20.9 km/h 79 % 0 mm 0 W/m2
20:18 12.1 °C 8.6 °C 1016.5 hPa SW 9.7 km/h 19.3 km/h 79 % 0 mm 0 W/m2
20:23 12 °C 8.7 °C 1016.5 hPa SSW 11.3 km/h 19.3 km/h 80 % 0 mm 0 W/m2
20:28 11.9 °C 8.6 °C 1016.5 hPa SSW 11.3 km/h 20.9 km/h 80 % 0 mm 0 W/m2
20:33 11.9 °C 8.6 °C 1016.5 hPa SSW 9.7 km/h 20.9 km/h 80 % 0 mm 0 W/m2
20:38 11.8 °C 8.7 °C 1016.5 hPa SSW 9.7 km/h 14.5 km/h 81 % 0 mm 0 W/m2
20:43 11.8 °C 8.7 °C 1016.5 hPa SSW 8 km/h 14.5 km/h 81 % 0 mm 0 W/m2
20:48 11.7 °C 8.6 °C 1016.5 hPa SSW 6.4 km/h 14.5 km/h 81 % 0 mm 0 W/m2
20:53 11.6 °C 8.4 °C 1016.5 hPa SSW 8 km/h 16.1 km/h 81 % 0 mm 0 W/m2
20:58 11.6 °C 8.4 °C 1016.5 hPa SSW 9.7 km/h 16.1 km/h 81 % 0 mm 0 W/m2
21:03 11.5 °C 8.3 °C 1016.8 hPa SSW 8 km/h 14.5 km/h 81 % 0 mm 0 W/m2
21:08 11.4 °C 8.3 °C 1016.5 hPa SW 6.4 km/h 14.5 km/h 81 % 0 mm 0 W/m2
21:13 11.4 °C 8.3 °C 1016.8 hPa SW 6.4 km/h 11.3 km/h 81 % 0 mm 0 W/m2
21:18 11.3 °C 8.2 °C 1016.8 hPa WSW 8 km/h 14.5 km/h 81 % 0 mm 0 W/m2
21:23 11.3 °C 8.2 °C 1016.8 hPa WSW 8 km/h 14.5 km/h 81 % 0 mm 0 W/m2
21:28 11.2 °C 8.1 °C 1016.8 hPa WSW 6.4 km/h 16.1 km/h 81 % 0 mm 0 W/m2
21:33 11.2 °C 8.1 °C 1016.5 hPa SW 8 km/h 16.1 km/h 81 % 0 mm 0 W/m2
21:38 11.2 °C 8.1 °C 1016.8 hPa SW 6.4 km/h 12.9 km/h 81 % 0 mm 0 W/m2
21:43 11.2 °C 8.1 °C 1016.8 hPa SW 6.4 km/h 11.3 km/h 81 % 0 mm 0 W/m2
21:48 11.1 °C 7.9 °C 1016.8 hPa SW 4.8 km/h 12.9 km/h 81 % 0 mm 0 W/m2
21:53 11.1 °C 7.9 °C 1016.8 hPa SW 4.8 km/h 14.5 km/h 81 % 0 mm 0 W/m2
21:59 11.1 °C 7.9 °C 1016.8 hPa SSW 6.4 km/h 14.5 km/h 81 % 0 mm 0 W/m2
22:04 11.1 °C 8.2 °C 1016.8 hPa SSW 6.4 km/h 14.5 km/h 82 % 0 mm 0 W/m2
22:09 11 °C 8.1 °C 1016.5 hPa South 6.4 km/h 12.9 km/h 82 % 0 mm 0 W/m2
22:14 11 °C 8.1 °C 1016.5 hPa South 4.8 km/h 12.9 km/h 82 % 0 mm 0 W/m2
22:19 10.9 °C 7.9 °C 1016.5 hPa South 6.4 km/h 14.5 km/h 82 % 0 mm 0 W/m2
22:24 10.9 °C 8.1 °C 1016.5 hPa SSW 6.4 km/h 14.5 km/h 83 % 0 mm 0 W/m2
22:29 10.9 °C 8.1 °C 1016.5 hPa SSW 6.4 km/h 12.9 km/h 83 % 0 mm 0 W/m2
22:34 10.9 °C 8.1 °C 1016.5 hPa SSW 8 km/h 20.9 km/h 83 % 0 mm 0 W/m2
22:39 10.9 °C 8.1 °C 1016.5 hPa SSW 6.4 km/h 20.9 km/h 83 % 0 mm 0 W/m2
22:44 10.9 °C 8.1 °C 1016.5 hPa SW 4.8 km/h 11.3 km/h 83 % 0 mm 0 W/m2
22:49 10.9 °C 8.1 °C 1016.5 hPa SSW 8 km/h 17.7 km/h 83 % 0 mm 0 W/m2
22:54 10.9 °C 8.1 °C 1016.8 hPa SW 9.7 km/h 17.7 km/h 83 % 0 mm 0 W/m2
22:59 10.9 °C 8.1 °C 1016.8 hPa SW 9.7 km/h 17.7 km/h 83 % 0 mm 0 W/m2
23:00 10.9 °C 8.1 °C 1016.8 hPa SW 9.7 km/h 17.7 km/h 83 % 0 mm 0 W/m2
23:05 11 °C 8.2 °C 1016.8 hPa SW 9.7 km/h 16.1 km/h 83 % 0 mm 0 W/m2
23:07 11 °C 8.2 °C 1016.8 hPa SW 9.7 km/h 17.7 km/h 83 % 0 mm 0 W/m2
23:12 11 °C 8.2 °C 1016.8 hPa SW 9.7 km/h 17.7 km/h 83 % 0 mm 0 W/m2
23:17 11 °C 8.2 °C 1016.8 hPa SW 9.7 km/h 16.1 km/h 83 % 0 mm 0 W/m2
23:23 11 °C 8.2 °C 1016.8 hPa SW 8 km/h 14.5 km/h 83 % 0 mm 0 W/m2
23:28 11 °C 8.2 °C 1016.8 hPa SSW 9.7 km/h 17.7 km/h 83 % 0 mm 0 W/m2
23:33 11 °C 8.4 °C 1016.8 hPa SSW 11.3 km/h 17.7 km/h 84 % 0 mm 0 W/m2
23:38 10.9 °C 8.3 °C 1016.8 hPa SSW 11.3 km/h 22.5 km/h 84 % 0 mm 0 W/m2
23:43 10.9 °C 8.5 °C 1016.8 hPa SSW 11.3 km/h 22.5 km/h 85 % 0 mm 0 W/m2
23:48 10.8 °C 8.4 °C 1016.8 hPa SSW 11.3 km/h 17.7 km/h 85 % 0 mm 0 W/m2
23:53 10.8 °C 8.4 °C 1016.8 hPa SSW 9.7 km/h 17.7 km/h 85 % 0 mm 0 W/m2
23:58 10.7 °C 8.4 °C 1016.8 hPa SSW 4.8 km/h 11.3 km/h 86 % 0 mm 0 W/m2
Delerius-Weather
Compliments of Weather Underground - 2.25 mb

Data updates at regular intervals.